Wind_Speed
11 8 8 10 11 12 13 16 17 17 16 15 14 13 12 11 10 9 8 7 6 6 5 3 1 0 1 2 2 3 4 5 6 6 7 8 8 9 10 10 11 12 13
9 6 5 7 8 11 13 14 15 16 15 14 13 12 11 10 9 8 8 7 6 5 3 2 1 0 1 2 3 3 4 5 6 7 7 8 8 9 10 11 11 12 13
8 4 4 6 7 9 12 13 13 14 14 14 12 11 10 8 8 7 8 7 5 4 4 3 1 0 1 2 3 4 5 6 7 7 8 9 9 9 10 11 12 13 14
7 4 2 4 5 7 11 13 13 14 14 13 12 10 8 8 8 7 7 7 5 5 4 2 1 0 2 3 3 4 6 7 8 8 9 10 11 11 11 12 13 14 15
6 4 0 2 3 6 9 11 13 13 13 12 11 10 9 9 8 8 7 7 6 6 4 2 1 1 2 3 4 5 7 7 8 9 10 11 12 12 13 13 14 14 15
6 4 1 1 3 5 7 9 11 12 12 12 12 12 11 10 9 8 7 7 6 5 4 2 1 2 3 4 5 6 7 8 9 10 11 12 13 14 15 15 16 16 16
5 4 2 1 2 4 7 8 9 11 12 12 11 12 11 10 9 8 7 7 5 5 3 3 3 3 4 5 6 7 8 9 10 12 13 14 15 16 16 17 17 18 18
4 3 2 0 2 4 6 7 8 10 11 11 10 10 10 10 9 8 8 7 6 5 5 5 5 5 6 7 8 9 10 11 13 14 15 16 17 18 18 19 19 19 20
5 3 1 1 2 4 5 6 7 8 9 10 10 10 10 10 10 9 8 8 7 7 7 7 7 8 9 10 11 12 13 14 15 16 17 19 19 20 21 21 21 21 21
5 4 2 2 3 4 5 6 7 8 8 9 10 10 10 10 10 10 9 9 9 9 9 10 10 11 12 13 14 14 16 17 18 19 20 21 21 22 22 23 23 23 23
6 5 4 4 4 4 5 7 7 8 8 8 9 10 11 11 11 11 11 11 11 11 12 13 14 15 15 16 17 18 19 20 21 22 23 23 23 23 24 24 24 25 25
8 7 6 6 6 6 6 7 7 8 8 9 10 11 11 12 12 13 13 13 14 14 15 16 17 18 18 19 20 21 22 23 24 24 25 25 25 25 26 26 26 26 26
10 9 9 8 8 8 8 9 9 9 10 10 11 12 13 14 14 15 15 16 17 17 18 19 20 20 21 22 23 24 25 26 26 26 27 27 26 26 27 27 28 28 28
12 11 11 10 10 10 11 11 12 12 12 13 13 14 15 16 17 17 18 19 20 20 21 22 23 23 24 25 26 27 27 28 28 28 28 28 28 28 28 29 29 30 30
13 13 12 12 12 12 13 13 14 14 15 15 16 16 17 17 18 19 20 21 22 23 24 25 25 26 27 28 28 29 29 30 30 30 30 30 30 30 30 31 31 31 32
14 15 14 13 13 14 14 15 15 16 17 17 18 18 19 19 20 21 22 23 24 25 26 27 27 28 29 30 30 31 31 31 31 32 32 32 32 32 33 33 33 33 34
17 16 16 15 15 15 16 17 17 18 18 19 20 21 22 22 23 23 24 25 26 27 28 29 29 30 31 32 32 33 33 33 33 33 33 33 34 34 34 35 35 36 36
18 18 17 17 18 18 18 18 19 19 19 21 22 23 24 24 25 26 27 28 29 30 30 31 32 33 33 34 34 35 35 35 35 35 35 35 36 37 37 37 37 37 37
20 20 19 19 19 19 20 20 20 21 22 23 24 25 26 26 27 27 28 29 31 31 33 34 34 34 34 35 36 37 36 36 36 37 37 38 38 38 39 39 39 38 38
20 20 21 21 20 20 21 22 23 23 24 25 26 28 29 29 29 29 30 31 31 32 33 34 34 35 36 36 37 37 38 38 39 39 39 39 39 39 40 40 40 39 40
21 22 23 23 23 23 23 24 24 25 26 27 27 28 29 30 30 31 31 33 33 33 33 34 36 36 36 37 37 38 40 41 41 40 40 40 40 41 41 41 41 42 42
23 23 24 24 25 25 26 25 25 26 27 28 30 31 31 32 32 32 33 34 35 35 36 37 37 38 38 39 39 40 40 41 42 42 42 42 42 42 42 43 44 44 45
25 25 25 26 26 27 27 28 28 29 30 31 31 32 33 34 34 34 34 35 36 38 38 39 39 39 40 40 40 41 42 43 44 44 45 45 44 45 45 46 47 47 47
26 27 27 28 28 28 29 30 31 32 32 32 33 33 34 35 36 35 35 37 38 38 39 40 41 41 42 42 43 44 45 45 46 46 46 47 48 48 48 49 50 49 50
28 28 29 30 30 30 31 31 32 33 34 35 35 36 36 37 37 37 37 38 39 40 41 42 44 44 45 46 46 47 48 49 49 50 50 50 51 51 52 52 51 51 51
29 29 29 30 30 31 32 33 35 36 36 37 37 37 38 39 38 38 38 38 39 41 42 43 45 47 48 49 49 50 51 51 52 52 52 52 53 53 54 54 54 53 53
Wind_Direction
312 288 262 243 234 229 224 220 219 219 216 210 214 221 227 228 230 229 225 219 219 217 218 219 241 296 338 345 353 345 343 339 335 329 325 322 318 313 307 304 301 297 294
318 291 261 246 231 222 213 209 209 206 204 207 214 218 220 221 224 220 213 206 210 211 197 180 166 107 350 349 343 343 344 342 339 335 333 332 329 324 320 315 310 305 301
332 307 260 237 218 205 198 195 194 200 204 207 210 213 218 212 213 209 202 203 204 193 186 185 187 253 325 329 333 342 346 346 345 342 341 340 337 331 326 320 315 311 308
341 340 227 206 205 199 196 194 196 202 205 207 208 213 211 205 204 202 195 195 191 185 182 184 185 283 323 323 323 332 339 341 342 341 340 338 335 334 330 325 321 317 312
348 354 16 173 186 194 197 196 198 202 205 206 206 207 208 206 200 195 192 194 193 188 182 180 196 313 318 318 322 327 333 336 337 339 340 338 335 333 329 327 323 320 316
360 2 323 188 177 180 185 190 197 202 204 206 208 211 212 207 200 196 196 195 193 190 191 204 272 312 314 319 324 328 331 333 334 336 336 335 333 332 330 327 325 322 319
353 6 31 131 154 173 183 189 196 200 202 204 208 210 210 207 203 198 199 202 206 207 216 244 272 296 312 322 326 326 327 328 328 328 329 329 329 328 326 325 323 322 321
343 359 16 73 169 177 185 194 197 199 202 205 205 209 210 205 202 202 205 209 213 227 246 263 280 293 304 310 313 315 317 319 320 320 321 322 324 324 323 322 321 320 319
321 329 313 240 195 193 192 192 194 197 202 205 206 206 202 200 201 209 213 218 228 241 253 266 276 286 294 300 304 307 310 312 314 314 315 316 317 318 319 318 318 318 317
301 296 272 240 215 206 193 192 195 196 200 202 205 205 205 210 214 217 222 231 241 249 259 269 278 286 293 297 300 302 305 308 310 311 312 313 314 314 314 315 315 315 315
287 275 256 240 223 214 206 205 204 204 206 207 208 210 214 217 222 229 236 244 252 260 267 275 281 287 292 295 297 299 302 305 307 308 309 309 310 310 311 311 312 312 313
273 263 250 242 242 237 225 217 215 216 220 221 222 224 226 230 235 243 249 255 261 267 272 278 283 287 291 293 295 297 300 302 304 305 306 305 306 306 307 308 309 309 310
268 260 256 252 248 243 237 232 231 231 233 234 236 237 239 243 248 252 257 262 267 272 276 280 284 287 290 292 294 296 298 300 301 302 302 302 302 303 304 305 306 306 306
269 264 258 256 253 249 246 243 241 242 244 244 244 246 249 253 257 260 264 267 271 275 278 282 284 287 289 291 293 294 296 298 299 299 300 300 299 300 301 303 304 304 304
264 261 258 255 253 251 251 251 250 249 250 251 252 254 256 259 262 265 268 272 275 278 281 283 284 287 289 290 292 293 294 296 296 297 297 297 297 297 299 300 301 302 302
266 260 255 254 254 254 254 254 255 255 256 257 258 260 262 264 266 269 272 275 277 279 281 283 285 287 288 289 290 291 292 293 294 295 295 295 295 297 298 299 299 300 301
266 260 257 256 258 258 257 256 258 259 261 262 264 266 267 268 269 271 273 276 278 280 282 284 285 287 288 289 289 290 291 291 292 293 294 294 295 296 297 297 298 299 300
265 261 259 258 258 258 260 263 263 263 265 267 268 270 271 271 272 274 276 278 279 281 282 283 284 286 287 287 288 289 290 291 292 293 294 294 295 296 296 296 297 298 299
260 259 262 260 260 261 262 265 267 267 269 271 272 273 273 274 275 276 278 280 281 282 283 284 284 285 286 287 288 289 289 291 292 292 293 293 294 295 295 296 297 297 297
262 261 264 262 262 262 264 267 269 270 272 271 274 275 275 277 277 279 281 282 283 284 284 284 284 284 286 287 288 288 289 291 291 291 292 293 294 294 295 295 295 296 296
264 263 264 263 264 264 266 268 271 272 272 273 276 276 276 278 280 279 281 281 283 283 286 287 287 287 286 286 287 288 290 290 290 291 293 293 293 293 293 294 295 295 295
264 263 263 264 265 267 267 268 272 275 277 278 278 278 280 281 281 281 282 282 282 284 286 287 287 287 287 287 288 288 289 289 290 291 292 293 293 293 293 294 294 294 294
265 264 263 263 264 267 269 271 274 276 277 278 279 280 282 282 283 282 282 284 285 286 286 286 287 287 287 288 289 290 290 290 290 290 291 291 291 292 293 293 293 293 293
264 264 265 265 266 268 270 271 274 277 280 281 282 282 282 282 283 282 283 284 285 286 286 286 286 287 288 287 288 289 290 290 290 290 290 291 291 291 291 292 292 292 291
264 263 264 266 267 269 270 272 273 275 278 280 282 282 283 282 283 283 283 284 284 285 285 285 285 286 286 287 287 288 290 290 290 290 291 291 292 291 291 291 290 290 290
267 265 267 269 270 271 271 273 274 276 279 281 283 283 283 284 285 283 284 285 286 285 285 285 286 287 287 287 288 289 290 290 291 292 292 291 291 291 291 291 290 290 289
Height
5834 5833 5833 5834 5834 5836 5840 5843 5846 5850 5854 5857 5861 5864 5867 5869 5871 5872 5874 5875 5877 5878 5879 5880 5880 5881 5882 5882 5883 5883 5883 5883 5883 5883 5883 5882 5882 5881 5881 5880 5880 5880 5880
5834 5832 5831 5833 5833 5835 5838 5841 5845 5849 5853 5856 5859 5862 5865 5867 5869 5871 5873 5874 5876 5877 5878 5879 5880 5880 5881 5882 5882 5882 5882 5882 5882 5882 5881 5881 5881 5880 5879 5878 5878 5877 5877
5834 5832 5832 5833 5834 5836 5838 5841 5845 5848 5852 5855 5858 5861 5864 5866 5868 5870 5872 5874 5875 5876 5878 5879 5879 5880 5881 5881 5881 5881 5881 5881 5881 5880 5880 5879 5879 5878 5877 5876 5876 5875 5874
5834 5833 5833 5834 5834 5836 5838 5841 5844 5848 5851 5855 5858 5861 5863 5865 5868 5869 5871 5873 5874 5876 5877 5878 5879 5879 5880 5880 5880 5880 5880 5880 5880 5879 5878 5878 5877 5876 5875 5875 5873 5872 5871
5835 5834 5834 5835 5836 5837 5839 5841 5845 5848 5851 5854 5857 5860 5862 5865 5867 5869 5871 5872 5874 5875 5876 5877 5878 5878 5879 5879 5879 5879 5879 5879 5878 5878 5877 5876 5875 5874 5873 5872 5871 5870 5868
5837 5836 5836 5836 5837 5838 5840 5842 5845 5848 5851 5854 5856 5859 5862 5864 5866 5868 5870 5872 5873 5875 5876 5876 5877 5877 5878 5878 5878 5878 5877 5877 5877 5876 5875 5874 5873 5872 5871 5869 5868 5867 5865
5838 5837 5837 5837 5838 5839 5841 5843 5846 5848 5850 5853 5856 5858 5861 5863 5865 5867 5869 5871 5873 5874 5875 5876 5876 5877 5877 5877 5877 5876 5876 5876 5875 5874 5873 5872 5871 5869 5868 5867 5865 5863 5861
5838 5838 5838 5838 5839 5840 5842 5844 5846 5848 5850 5853 5855 5858 5860 5862 5864 5867 5869 5870 5872 5873 5874 5875 5875 5875 5876 5876 5875 5875 5874 5874 5873 5872 5871 5869 5868 5866 5865 5863 5861 5860 5858
5839 5839 5839 5839 5840 5841 5842 5844 5846 5848 5850 5852 5855 5857 5859 5861 5864 5866 5868 5869 5870 5872 5872 5873 5873 5874 5874 5874 5873 5873 5872 5871 5870 5869 5868 5866 5865 5863 5861 5859 5857 5856 5853
5839 5839 5839 5839 5840 5841 5842 5844 5846 5848 5850 5852 5854 5856 5859 5861 5863 5864 5866 5867 5869 5870 5870 5871 5871 5871 5871 5871 5870 5870 5869 5868 5867 5866 5864 5862 5861 5859 5857 5855 5853 5851 5849
5838 5838 5839 5840 5841 5842 5843 5845 5846 5848 5850 5852 5854 5856 5858 5860 5861 5863 5864 5865 5866 5867 5868 5868 5868 5868 5868 5867 5867 5866 5865 5864 5863 5861 5860 5858 5856 5854 5852 5850 5848 5846 5843
5838 5838 5839 5840 5840 5842 5843 5844 5846 5847 5849 5851 5853 5854 5856 5858 5859 5860 5862 5863 5864 5864 5864 5864 5864 5864 5864 5863 5862 5862 5860 5859 5858 5856 5855 5853 5851 5849 5847 5845 5842 5840 5838
5836 5837 5838 5839 5839 5840 5842 5843 5845 5846 5848 5849 5851 5852 5854 5855 5857 5858 5859 5859 5860 5860 5860 5860 5860 5860 5859 5858 5857 5856 5855 5854 5852 5851 5849 5847 5845 5843 5841 5839 5836 5834 5832
5833 5835 5836 5837 5838 5839 5840 5841 5842 5844 5845 5847 5848 5850 5851 5852 5853 5854 5855 5855 5856 5856 5856 5855 5855 5854 5853 5853 5852 5850 5849 5847 5846 5844 5842 5841 5839 5836 5834 5832 5830 5827 5825
5831 5832 5833 5834 5835 5836 5838 5839 5840 5841 5842 5844 5845 5846 5847 5848 5849 5849 5850 5850 5850 5850 5850 5849 5849 5848 5847 5846 5845 5843 5842 5840 5839 5837 5835 5833 5831 5829 5827 5825 5822 5820 5817
5827 5829 5830 5831 5832 5833 5834 5835 5836 5837 5839 5840 5841 5841 5842 5843 5843 5844 5844 5844 5844 5844 5844 5843 5842 5841 5840 5839 5838 5836 5834 5833 5831 5829 5827 5825 5823 5821 5819 5817 5814 5811 5809
5824 5825 5826 5827 5828 5830 5831 5831 5832 5833 5834 5835 5835 5836 5837 5837 5837 5838 5838 5838 5837 5837 5836 5835 5835 5834 5832 5831 5829 5828 5826 5824 5823 5821 5819 5817 5815 5813 5811 5808 5805 5803 5800
5820 5821 5822 5823 5824 5825 5826 5827 5827 5828 5829 5829 5830 5830 5830 5831 5831 5831 5831 5831 5830 5829 5829 5828 5826 5825 5824 5822 5821 5819 5817 5816 5814 5812 5810 5808 5805 5803 5801 5798 5796 5794 5790
5815 5816 5817 5818 5819 5820 5821 5822 5822 5822 5823 5823 5824 5824 5824 5824 5824 5823 5823 5822 5822 5821 5820 5819 5818 5816 5815 5813 5812 5810 5808 5807 5805 5803 5800 5798 5796 5793 5790 5788 5786 5783 5780
5810 5811 5812 5812 5814 5815 5816 5816 5817 5817 5817 5816 5816 5817 5816 5816 5815 5815 5815 5814 5813 5812 5810 5809 5808 5807 5805 5804 5802 5800 5798 5797 5795 5793 5790 5788 5785 5783 5780 5777 5774 5772 5769
5805 5806 5807 5807 5808 5808 5809 5809 5810 5810 5810 5810 5810 5809 5808 5807 5807 5806 5806 5805 5804 5802 5801 5800 5799 5797 5795 5794 5792 5790 5788 5786 5783 5781 5779 5777 5774 5772 5769 5766 5763 5760 5757
5799 5799 5801 5801 5802 5802 5802 5802 5803 5802 5801 5802 5802 5801 5800 5799 5798 5797 5797 5795 5793 5792 5791 5790 5789 5787 5785 5783 5781 5779 5776 5774 5772 5769 5767 5764 5762 5759 5757 5754 5751 5747 5744
5792 5793 5793 5794 5795 5796 5795 5795 5795 5794 5794 5793 5793 5793 5792 5790 5789 5789 5787 5786 5784 5782 5781 5780 5778 5776 5774 5772 5770 5768 5765 5762 5760 5757 5754 5751 5749 5746 5743 5740 5737 5733 5730
5785 5785 5786 5786 5788 5788 5788 5788 5788 5787 5786 5785 5784 5783 5782 5781 5779 5778 5777 5776 5774 5772 5771 5769 5767 5765 5763 5760 5758 5756 5753 5750 5746 5743 5741 5738 5735 5732 5729 5726 5722 5718 5715
5778 5778 5779 5779 5780 5780 5780 5780 5779 5779 5778 5777 5775 5774 5773 5771 5770 5768 5767 5765 5764 5762 5760 5757 5755 5752 5750 5747 5745 5742 5739 5735 5732 5729 5726 5723 5719 5716 5713 5710 5706 5703 5700
5769 5770 5770 5771 5771 5771 5771 5771 5770 5769 5768 5767 5765 5764 5763 5761 5759 5757 5755 5754 5752 5750 5747 5745 5742 5739 5736 5733 5730 5727 5724 5720 5716 5713 5710 5706 5703 5699 5696 5692 5689 5686 5683